Montevideo, Uruguay

11:34 AM -03 en Julio 21, 2017 (GMT -0300)
Carrasco International-Gen C L Berisso

Tiempo Historia de SUMU - Marzo, 2017

Change the Weather History Date:

Martes, Marzo 21, 2017

  Actual Average Record
Temperature  
Temperatura media 68 ° F -  
Temperatura máxima 74 ° F 70 ° F 86 ° F (2011)
Temperatura mínima 62 ° F 54 ° F 48 ° F (2004)
Cooling Degree Days 3    
Growing Degree Days 18 (Base 50)    
Moisture  
Punto de rocío 62 ° F    
Average Humidity 77    
Maximum Humidity 94    
Minimum Humidity 60    
Precipitación  
Precipitación 0.00 pul 0.12 pul - ()
Presión al nivel del mar  
Presión al nivel del mar 30.21 pul    
Viento  
Velocidad del viento 7 mph ()    
Velocidad máxima del viento 15 mph    
Max Gust Speed 26 mph    
Visibilidad 7.7 Millas    
Eventos      
Averages and records for this station are not official NWS values.
T = Trace of Precipitation, MM = Missing Value Source: Averaged Metar Reports

Daily Weather History Graph

Daily Weather History Graph

Search for Another Location

Airport or City:

Trip Planner

Search our weather history database for the weather conditions in past years. The results will help you decide how hot, cold, wet, or windy it might be!

Date:

Astronomía

Mar. 21, 2017 Salida Puesta
Hora real 6:48 AM -03 6:53 PM -03
Crepúsculo civil 6:22 AM -03 7:18 PM -03
Crepúsculo náutico 5:53 AM -03 7:47 PM -03
Crepúsculo astronómico 5:23 AM -03 8:17 PM -03
Luna 12:18 AM -03 2:35 PM -03
Horas de luz 12h 55m
Horas de luz
12h 05m
Cuarto menguante, 41% of the Moon is Illuminated
Mar 21
Cuarto menguante
Mar 27
Nueva
Abr 3
Cuarto creciente
Abr 11
Luna llena
Abr 19
Cuarto menguante

Hourly Weather History & Observations

Hora (-03) Temp. Punto de rocío Humedad Presión Visibilidad Wind Dir Velocidad del viento Velocidad de ráfagas Precip Eventos Condiciones
12:00 AM 65 ° F 61 ° F 82% 30.24 pul 9 mi Este 5.8 mph - -   Despejado
12:00 AM 66.2 ° F 60.8 ° F 83% 30.21 pul - Este 5.8 mph - N/A   Despejado
1:00 AM 64.4 ° F 60.8 ° F 88% 30.24 pul - Este 5.8 mph - N/A   Despejado
2:00 AM 64.4 ° F 59.0 ° F 83% 30.21 pul - Este 6.9 mph - N/A   Despejado
3:00 AM 63 ° F 58 ° F 80% 30.24 pul 7 mi Este 4.6 mph - -   Nubes dispersas
3:00 AM 62.6 ° F 59.0 ° F 88% 30.21 pul - Este 4.6 mph - N/A   Despejado
4:00 AM 62.6 ° F 59.0 ° F 88% 30.21 pul - Este 5.8 mph - N/A   Despejado
5:00 AM 62.6 ° F 59.0 ° F 88% 30.21 pul - ENE 3.5 mph - N/A   Despejado
6:00 AM 62 ° F 58 ° F 84% 30.24 pul 7 mi Este 5.8 mph - -   Despejado
6:00 AM 62.6 ° F 59.0 ° F 88% 30.24 pul - Este 5.8 mph - N/A   Despejado
7:00 AM 62.6 ° F 59.0 ° F 88% 30.24 pul - Este 3.5 mph - N/A   Despejado
8:00 AM 64.4 ° F 62.6 ° F 94% 30.24 pul - Este 4.6 mph - N/A   Despejado
9:00 AM 70 ° F 63 ° F 72% 30.27 pul 9 mi Este 6.9 mph - -   Nubes dispersas
9:00 AM 69.8 ° F 62.6 ° F 78% 30.24 pul - Este 6.9 mph - N/A   Despejado
10:00 AM 71.6 ° F 62.6 ° F 73% 30.24 pul 6.2 mi Este 11.5 mph - N/A   Muy nublado
11:00 AM 71.6 ° F 64.4 ° F 78% 30.24 pul 6.2 mi Este 8.1 mph - N/A   Muy nublado
12:00 PM 72 ° F 64 ° F 69% 30.25 pul 12 mi Este 11.5 mph - -   Nubes dispersas
12:00 PM 71.6 ° F 64.4 ° F 78% 30.24 pul 6.2 mi Este 11.5 mph - N/A   Nubes dispersas
1:00 PM 73.4 ° F 64.4 ° F 73% 30.21 pul 6.2 mi ESE 11.5 mph - N/A   Nubes dispersas
2:00 PM 73.4 ° F 64.4 ° F 73% 30.21 pul 6.2 mi ESE 12.7 mph 24.2 mph N/A   Nubes dispersas
3:00 PM 73 ° F 64 ° F 67% 30.21 pul 12 mi ESE 12.7 mph - -   Parcialmente nublado
3:00 PM 73.4 ° F 64.4 ° F 73% 30.21 pul 6.2 mi ESE 12.7 mph 25.3 mph N/A   Nubes dispersas
4:00 PM 75.2 ° F 64.4 ° F 69% 30.18 pul 6.2 mi ESE 15.0 mph 26.5 mph N/A   Nubes dispersas
5:00 PM 75.2 ° F 64.4 ° F 69% 30.18 pul 6.2 mi ESE 15.0 mph 26.5 mph N/A   Nubes dispersas
6:00 PM 74 ° F 63 ° F 60% 30.18 pul 12 mi Este 11.5 mph - -   Nubes dispersas
6:00 PM 73.4 ° F 62.6 ° F 69% 30.18 pul 6.2 mi Este 11.5 mph 23.0 mph N/A   Parcialmente nublado
7:00 PM 71.6 ° F 62.6 ° F 73% 30.18 pul 6.2 mi Este 11.5 mph - N/A   Parcialmente nublado
8:00 PM 71.6 ° F 62.6 ° F 73% 30.18 pul - Este 13.8 mph - N/A   Despejado
9:00 PM 70 ° F 62 ° F 67% 30.19 pul 9 mi Este 10.4 mph - -   Parcialmente nublado
9:00 PM 69.8 ° F 62.6 ° F 78% 30.18 pul - Este 10.4 mph - N/A   Despejado
10:00 PM 69.8 ° F 60.8 ° F 73% 30.18 pul - Este 9.2 mph - N/A   Despejado
11:00 PM 69.8 ° F 60.8 ° F 73% 30.18 pul - ENE 9.2 mph - N/A   Despejado